フルス彗星

C/2017 U2 ( Fuls )

English version
Home page
Updated on March 3, 2018

---------------------------------------------------------------------

・ プロフィール

発見日 2017年10月22日
発見光度 21.2等
発見者 D. C. Fuls (Mount Lemmon)

・ 軌道要素

Epoch 2017 Sept. 4.0 TT = JDT 2458000.5
T 2017 Aug. 28.11168 TT                                 MPCW
q   6.7003315            (2000.0)            P               Q
z  +0.0001064      Peri.  147.72667     +0.75559627     +0.42071210
 +/-0.0000201      Node   149.71272     -0.56263252     +0.02433238
e   0.9992870      Incl.   95.43179     +0.33543841     -0.90686783
From 49 observations 2017 July 26-Oct. 28, mean residual 0".5.

・ 光度変化

        m1 = 8.5 + 5 logΔ + 10.0 log r

---------------------------------------------------------------------

軌道要素はM.P.E.C. 2018-D91に掲載されたものです。
光度グラフはComet for Windowsで作成したものです。

---------------------------------------------------------------------

Copyright(C) Seiichi Yoshida (comet@aerith.net). All rights reserved.